QPF
0.00 0.00 0.00 0.00 0.00 0.00 0.00 0.00 0.00 0.00 0.00 0.00 0.00 0.00 0.00 0.00 0.00 0.00 0.00 0.00 0.00 0.00 0.00 0.00 0.00 0.00 0.00 0.00 0.00 0.00 0.00 0.00 0.00 0.00 0.00 0.01 0.01 0.02 0.01 0.01 0.01 0.01 0.00
0.00 0.00 0.00 0.00 0.00 0.00 0.00 0.00 0.00 0.00 0.00 0.00 0.00 0.00 0.00 0.00 0.00 0.00 0.00 0.00 0.00 0.00 0.00 0.00 0.00 0.00 0.00 0.00 0.00 0.00 0.00 0.00 0.00 0.00 0.00 0.00 0.01 0.01 0.01 0.00 0.01 0.01 0.01
0.00 0.00 0.00 0.00 0.00 0.00 0.00 0.00 0.00 0.00 0.00 0.00 0.00 0.00 0.00 0.00 0.00 0.00 0.00 0.00 0.00 0.00 0.00 0.00 0.00 0.00 0.00 0.00 0.00 0.00 0.00 0.00 0.00 0.00 0.01 0.01 0.01 0.00 0.00 0.00 0.00 0.00 0.00
0.00 0.00 0.00 0.00 0.00 0.00 0.00 0.00 0.00 0.00 0.00 0.00 0.00 0.00 0.00 0.00 0.00 0.00 0.00 0.00 0.00 0.00 0.00 0.00 0.00 0.00 0.00 0.00 0.00 0.00 0.00 0.00 0.00 0.01 0.01 0.01 0.01 0.00 0.00 0.00 0.00 0.00 0.00
0.00 0.00 0.00 0.00 0.00 0.00 0.00 0.00 0.00 0.00 0.00 0.00 0.00 0.00 0.00 0.00 0.00 0.00 0.00 0.00 0.00 0.00 0.00 0.00 0.00 0.00 0.00 0.00 0.00 0.00 0.00 0.00 0.00 0.00 0.00 0.01 0.02 0.01 0.00 0.00 0.01 0.01 0.01
0.00 0.00 0.00 0.00 0.00 0.00 0.00 0.00 0.00 0.00 0.00 0.00 0.00 0.00 0.00 0.00 0.00 0.00 0.00 0.00 0.00 0.00 0.00 0.00 0.00 0.00 0.00 0.00 0.00 0.00 0.00 0.00 0.00 0.00 0.00 0.00 0.01 0.01 0.01 0.00 0.01 0.01 0.01
0.00 0.00 0.00 0.00 0.00 0.00 0.00 0.00 0.00 0.00 0.00 0.00 0.00 0.00 0.00 0.00 0.00 0.00 0.00 0.00 0.00 0.00 0.00 0.00 0.00 0.00 0.00 0.00 0.00 0.00 0.00 0.00 0.00 0.00 0.00 0.00 0.00 0.00 0.01 0.01 0.01 0.01 0.01
0.00 0.00 0.00 0.01 0.01 0.00 0.00 0.00 0.00 0.00 0.00 0.00 0.00 0.00 0.00 0.00 0.00 0.00 0.00 0.00 0.00 0.01 0.00 0.00 0.00 0.00 0.00 0.00 0.00 0.00 0.00 0.00 0.00 0.00 0.00 0.01 0.00 0.00 0.01 0.02 0.03 0.02 0.02
0.00 0.00 0.00 0.01 0.01 0.01 0.00 0.00 0.00 0.00 0.00 0.00 0.00 0.00 0.00 0.00 0.00 0.00 0.00 0.00 0.00 0.00 0.00 0.00 0.00 0.00 0.00 0.00 0.00 0.00 0.00 0.00 0.00 0.00 0.00 0.01 0.00 0.00 0.01 0.04 0.07 0.05 0.03
0.00 0.00 0.01 0.01 0.01 0.01 0.01 0.01 0.00 0.00 0.00 0.00 0.00 0.00 0.00 0.00 0.00 0.00 0.00 0.00 0.00 0.00 0.01 0.00 0.00 0.01 0.01 0.01 0.01 0.02 0.01 0.01 0.00 0.00 0.00 0.00 0.00 0.00 0.02 0.08 0.10 0.10 0.07
0.00 0.01 0.01 0.01 0.01 0.01 0.01 0.01 0.01 0.01 0.01 0.01 0.01 0.01 0.01 0.00 0.00 0.00 0.00 0.00 0.00 0.01 0.01 0.01 0.02 0.03 0.04 0.04 0.03 0.02 0.03 0.02 0.01 0.01 0.01 0.01 0.01 0.01 0.02 0.07 0.10 0.13 0.10
0.01 0.01 0.01 0.01 0.01 0.01 0.01 0.01 0.02 0.02 0.02 0.01 0.01 0.01 0.01 0.01 0.01 0.00 0.00 0.00 0.01 0.02 0.03 0.05 0.09 0.11 0.09 0.05 0.08 0.08 0.05 0.03 0.04 0.02 0.01 0.02 0.04 0.03 0.02 0.04 0.08 0.10 0.11
0.00 0.01 0.01 0.01 0.02 0.02 0.01 0.01 0.01 0.01 0.01 0.01 0.02 0.02 0.03 0.02 0.02 0.01 0.01 0.01 0.02 0.04 0.05 0.09 0.15 0.12 0.13 0.14 0.18 0.18 0.09 0.06 0.03 0.02 0.02 0.04 0.05 0.05 0.03 0.03 0.04 0.06 0.08
0.01 0.01 0.01 0.01 0.02 0.01 0.01 0.01 0.01 0.01 0.01 0.01 0.02 0.02 0.04 0.04 0.03 0.03 0.02 0.03 0.05 0.06 0.08 0.13 0.17 0.22 0.23 0.21 0.23 0.24 0.20 0.12 0.07 0.08 0.07 0.07 0.07 0.07 0.06 0.05 0.04 0.04 0.06
0.01 0.01 0.02 0.02 0.02 0.02 0.02 0.01 0.01 0.01 0.01 0.01 0.02 0.03 0.05 0.07 0.07 0.08 0.09 0.09 0.08 0.09 0.12 0.16 0.17 0.22 0.21 0.20 0.20 0.21 0.20 0.17 0.15 0.15 0.10 0.08 0.08 0.08 0.08 0.07 0.07 0.06 0.07
0.03 0.04 0.05 0.04 0.03 0.03 0.03 0.02 0.02 0.02 0.01 0.02 0.03 0.04 0.06 0.08 0.10 0.14 0.16 0.14 0.11 0.12 0.15 0.16 0.16 0.17 0.16 0.16 0.13 0.14 0.16 0.18 0.17 0.14 0.10 0.11 0.09 0.07 0.08 0.09 0.09 0.09 0.10
0.05 0.06 0.06 0.04 0.03 0.03 0.03 0.02 0.02 0.02 0.02 0.01 0.02 0.04 0.08 0.11 0.13 0.16 0.19 0.16 0.14 0.12 0.12 0.13 0.12 0.11 0.09 0.08 0.07 0.10 0.11 0.12 0.12 0.12 0.11 0.11 0.09 0.05 0.05 0.07 0.08 0.09 0.09
0.05 0.06 0.06 0.06 0.05 0.05 0.05 0.06 0.05 0.04 0.04 0.03 0.04 0.05 0.09 0.13 0.19 0.22 0.22 0.18 0.16 0.12 0.10 0.10 0.10 0.08 0.07 0.08 0.09 0.10 0.10 0.10 0.09 0.07 0.07 0.07 0.08 0.06 0.06 0.04 0.04 0.06 0.06
0.04 0.05 0.06 0.07 0.07 0.08 0.09 0.08 0.06 0.05 0.06 0.07 0.08 0.11 0.14 0.16 0.21 0.25 0.21 0.16 0.13 0.11 0.10 0.08 0.09 0.08 0.08 0.09 0.09 0.08 0.07 0.07 0.05 0.02 0.02 0.03 0.03 0.03 0.03 0.03 0.02 0.02 0.03
0.03 0.04 0.04 0.06 0.08 0.10 0.09 0.08 0.07 0.05 0.05 0.08 0.13 0.15 0.20 0.25 0.31 0.30 0.25 0.21 0.17 0.14 0.10 0.08 0.07 0.07 0.06 0.06 0.05 0.05 0.05 0.03 0.02 0.01 0.01 0.01 0.01 0.01 0.01 0.02 0.02 0.02 0.02
0.03 0.05 0.05 0.06 0.07 0.06 0.05 0.04 0.04 0.05 0.07 0.12 0.15 0.16 0.18 0.22 0.23 0.24 0.22 0.19 0.17 0.13 0.08 0.05 0.05 0.05 0.04 0.03 0.03 0.03 0.02 0.01 0.00 0.00 0.00 0.00 0.00 0.00 0.00 0.01 0.01 0.01 0.02
0.02 0.03 0.04 0.05 0.05 0.04 0.03 0.02 0.02 0.05 0.07 0.10 0.13 0.16 0.15 0.17 0.16 0.14 0.12 0.13 0.11 0.10 0.09 0.06 0.05 0.04 0.03 0.02 0.01 0.01 0.01 0.00 0.00 0.00 0.00 0.00 0.00 0.00 0.00 0.00 0.00 0.01 0.01
0.01 0.02 0.02 0.02 0.02 0.02 0.02 0.02 0.02 0.02 0.03 0.05 0.07 0.10 0.09 0.10 0.11 0.10 0.08 0.07 0.07 0.07 0.07 0.06 0.05 0.04 0.03 0.02 0.01 0.01 0.00 0.00 0.00 0.00 0.00 0.00 0.00 0.00 0.00 0.00 0.00 0.00 0.00
0.01 0.01 0.01 0.01 0.01 0.01 0.01 0.01 0.02 0.03 0.05 0.05 0.06 0.07 0.07 0.08 0.08 0.08 0.08 0.07 0.07 0.06 0.06 0.04 0.04 0.04 0.03 0.02 0.02 0.01 0.01 0.01 0.00 0.00 0.00 0.00 0.00 0.00 0.00 0.00 0.00 0.00 0.00
0.00 0.00 0.00 0.00 0.01 0.01 0.01 0.01 0.01 0.02 0.04 0.04 0.03 0.04 0.04 0.05 0.05 0.06 0.07 0.07 0.07 0.06 0.06 0.05 0.04 0.04 0.04 0.03 0.02 0.01 0.01 0.01 0.00 0.00 0.00 0.00 0.00 0.00 0.00 0.00 0.00 0.00 0.00
0.00 0.00 0.00 0.01 0.01 0.01 0.01 0.01 0.01 0.02 0.03 0.03 0.03 0.03 0.02 0.03 0.03 0.04 0.07 0.09 0.09 0.09 0.09 0.08 0.06 0.07 0.06 0.05 0.04 0.03 0.02 0.01 0.01 0.00 0.00 0.00 0.00 0.00 0.00 0.00 0.00 0.00 0.00
MSLP
1008.85 1009.12 1009.61 1010.24 1010.90 1011.48 1011.91 1012.15 1012.23 1012.22 1012.21 1012.28 1012.49 1012.84 1013.30 1013.82 1014.31 1014.72 1015.01 1015.19 1015.29 1015.34 1015.41 1015.51 1015.65 1015.82 1015.99 1016.12 1016.21 1016.25 1016.26 1016.25 1016.27 1016.32 1016.41 1016.53 1016.66 1016.79 1016.88 1016.95 1016.99 1017.02 1017.07
1008.69 1009.03 1009.59 1010.26 1010.96 1011.57 1012.02 1012.27 1012.37 1012.36 1012.35 1012.42 1012.61 1012.95 1013.40 1013.89 1014.36 1014.76 1015.04 1015.22 1015.33 1015.40 1015.50 1015.63 1015.81 1016.00 1016.19 1016.34 1016.42 1016.45 1016.44 1016.42 1016.42 1016.48 1016.59 1016.74 1016.91 1017.08 1017.22 1017.32 1017.39 1017.43 1017.47
1008.51 1008.92 1009.52 1010.25 1010.99 1011.64 1012.13 1012.44 1012.58 1012.61 1012.63 1012.71 1012.89 1013.20 1013.60 1014.04 1014.45 1014.79 1015.04 1015.20 1015.31 1015.41 1015.53 1015.71 1015.93 1016.16 1016.37 1016.53 1016.61 1016.62 1016.58 1016.54 1016.53 1016.57 1016.69 1016.87 1017.09 1017.30 1017.50 1017.65 1017.75 1017.82 1017.88
1008.38 1008.84 1009.48 1010.24 1011.02 1011.72 1012.28 1012.65 1012.86 1012.95 1013.01 1013.11 1013.29 1013.56 1013.90 1014.26 1014.59 1014.86 1015.05 1015.18 1015.28 1015.39 1015.55 1015.77 1016.03 1016.30 1016.53 1016.69 1016.76 1016.75 1016.69 1016.61 1016.58 1016.61 1016.73 1016.93 1017.18 1017.45 1017.69 1017.90 1018.06 1018.17 1018.25
1008.35 1008.84 1009.50 1010.29 1011.10 1011.84 1012.45 1012.89 1013.16 1013.32 1013.43 1013.55 1013.73 1013.96 1014.24 1014.52 1014.77 1014.96 1015.09 1015.18 1015.27 1015.40 1015.59 1015.84 1016.14 1016.43 1016.68 1016.84 1016.90 1016.86 1016.76 1016.65 1016.58 1016.60 1016.71 1016.92 1017.19 1017.50 1017.79 1018.05 1018.26 1018.43 1018.55
1008.45 1008.95 1009.62 1010.41 1011.23 1011.99 1012.62 1013.10 1013.43 1013.65 1013.80 1013.94 1014.11 1014.31 1014.53 1014.74 1014.92 1015.05 1015.13 1015.20 1015.28 1015.42 1015.63 1015.92 1016.24 1016.55 1016.81 1016.96 1017.00 1016.94 1016.80 1016.65 1016.55 1016.54 1016.64 1016.84 1017.13 1017.46 1017.80 1018.10 1018.36 1018.57 1018.74
1008.65 1009.15 1009.81 1010.58 1011.38 1012.13 1012.76 1013.25 1013.60 1013.84 1014.02 1014.17 1014.33 1014.51 1014.69 1014.86 1014.99 1015.08 1015.13 1015.19 1015.28 1015.43 1015.67 1015.97 1016.32 1016.64 1016.89 1017.04 1017.05 1016.96 1016.79 1016.61 1016.47 1016.43 1016.51 1016.71 1017.00 1017.35 1017.71 1018.05 1018.35 1018.59 1018.80
1008.90 1009.39 1010.03 1010.76 1011.52 1012.22 1012.82 1013.28 1013.62 1013.85 1014.02 1014.17 1014.32 1014.48 1014.65 1014.79 1014.90 1014.98 1015.04 1015.10 1015.21 1015.39 1015.65 1015.97 1016.32 1016.64 1016.89 1017.01 1017.01 1016.89 1016.70 1016.49 1016.33 1016.27 1016.34 1016.53 1016.82 1017.17 1017.55 1017.91 1018.23 1018.50 1018.74
1009.14 1009.63 1010.24 1010.92 1011.61 1012.24 1012.76 1013.17 1013.45 1013.65 1013.80 1013.93 1014.06 1014.21 1014.37 1014.51 1014.63 1014.72 1014.80 1014.89 1015.03 1015.24 1015.51 1015.84 1016.19 1016.51 1016.74 1016.85 1016.83 1016.70 1016.49 1016.28 1016.11 1016.04 1016.10 1016.29 1016.58 1016.94 1017.33 1017.70 1018.03 1018.32 1018.56
1009.33 1009.82 1010.40 1011.02 1011.63 1012.17 1012.61 1012.93 1013.15 1013.28 1013.38 1013.48 1013.60 1013.74 1013.89 1014.04 1014.18 1014.30 1014.41 1014.54 1014.71 1014.94 1015.23 1015.56 1015.91 1016.21 1016.43 1016.53 1016.50 1016.36 1016.16 1015.94 1015.78 1015.72 1015.79 1015.99 1016.29 1016.66 1017.06 1017.44 1017.78 1018.07 1018.32
1009.48 1009.96 1010.51 1011.08 1011.61 1012.06 1012.40 1012.63 1012.76 1012.83 1012.87 1012.93 1013.02 1013.14 1013.29 1013.45 1013.61 1013.76 1013.90 1014.06 1014.26 1014.50 1014.79 1015.12 1015.45 1015.74 1015.94 1016.03 1016.00 1015.87 1015.69 1015.49 1015.35 1015.31 1015.40 1015.61 1015.93 1016.32 1016.73 1017.13 1017.48 1017.78 1018.02
1009.62 1010.10 1010.62 1011.13 1011.58 1011.94 1012.19 1012.33 1012.38 1012.38 1012.37 1012.38 1012.44 1012.54 1012.68 1012.84 1013.00 1013.17 1013.32 1013.50 1013.70 1013.94 1014.23 1014.54 1014.85 1015.12 1015.31 1015.40 1015.38 1015.27 1015.11 1014.94 1014.83 1014.81 1014.92 1015.16 1015.50 1015.91 1016.34 1016.76 1017.13 1017.43 1017.68
1009.82 1010.29 1010.77 1011.22 1011.60 1011.87 1012.04 1012.10 1012.08 1012.02 1011.97 1011.94 1011.96 1012.03 1012.15 1012.29 1012.44 1012.60 1012.75 1012.92 1013.10 1013.33 1013.59 1013.87 1014.15 1014.41 1014.59 1014.68 1014.68 1014.59 1014.46 1014.33 1014.24 1014.25 1014.38 1014.63 1014.99 1015.41 1015.86 1016.30 1016.69 1017.02 1017.28
1010.14 1010.58 1011.01 1011.39 1011.70 1011.90 1011.99 1011.99 1011.92 1011.82 1011.72 1011.66 1011.64 1011.68 1011.76 1011.87 1011.99 1012.12 1012.24 1012.38 1012.53 1012.72 1012.94 1013.19 1013.45 1013.68 1013.85 1013.95 1013.97 1013.91 1013.81 1013.71 1013.64 1013.66 1013.80 1014.04 1014.39 1014.82 1015.28 1015.74 1016.15 1016.50 1016.79
1010.62 1011.00 1011.36 1011.67 1011.89 1012.02 1012.06 1012.01 1011.91 1011.78 1011.65 1011.56 1011.51 1011.50 1011.54 1011.60 1011.68 1011.76 1011.83 1011.92 1012.04 1012.18 1012.35 1012.56 1012.78 1012.99 1013.17 1013.28 1013.32 1013.29 1013.22 1013.13 1013.08 1013.09 1013.20 1013.42 1013.74 1014.14 1014.59 1015.05 1015.48 1015.86 1016.17
1011.25 1011.55 1011.81 1012.03 1012.17 1012.23 1012.22 1012.14 1012.01 1011.86 1011.71 1011.60 1011.51 1011.47 1011.45 1011.46 1011.48 1011.51 1011.54 1011.58 1011.64 1011.73 1011.87 1012.03 1012.23 1012.42 1012.59 1012.71 1012.78 1012.78 1012.73 1012.65 1012.60 1012.58 1012.65 1012.81 1013.07 1013.42 1013.82 1014.25 1014.68 1015.08 1015.44
1011.96 1012.15 1012.31 1012.42 1012.48 1012.48 1012.42 1012.31 1012.17 1012.00 1011.84 1011.70 1011.58 1011.49 1011.43 1011.39 1011.36 1011.34 1011.32 1011.32 1011.34 1011.39 1011.49 1011.62 1011.78 1011.96 1012.13 1012.27 1012.35 1012.38 1012.35 1012.29 1012.22 1012.17 1012.18 1012.26 1012.44 1012.70 1013.03 1013.41 1013.82 1014.22 1014.61
1012.65 1012.73 1012.78 1012.79 1012.77 1012.71 1012.61 1012.48 1012.32 1012.15 1011.97 1011.80 1011.65 1011.52 1011.41 1011.33 1011.26 1011.20 1011.15 1011.12 1011.12 1011.14 1011.21 1011.31 1011.45 1011.61 1011.78 1011.93 1012.03 1012.09 1012.08 1012.03 1011.95 1011.86 1011.81 1011.81 1011.89 1012.05 1012.29 1012.60 1012.96 1013.35 1013.75
1013.22 1013.20 1013.15 1013.08 1012.99 1012.88 1012.75 1012.60 1012.43 1012.24 1012.04 1011.84 1011.65 1011.48 1011.34 1011.22 1011.13 1011.06 1011.00 1010.97 1010.95 1010.96 1011.01 1011.09 1011.20 1011.35 1011.51 1011.66 1011.78 1011.85 1011.88 1011.84 1011.76 1011.65 1011.55 1011.48 1011.46 1011.52 1011.66 1011.89 1012.19 1012.54 1012.93
1013.60 1013.50 1013.38 1013.25 1013.11 1012.97 1012.82 1012.66 1012.48 1012.27 1012.05 1011.82 1011.59 1011.39 1011.21 1011.07 1010.97 1010.90 1010.85 1010.83 1010.82 1010.83 1010.87 1010.93 1011.02 1011.13 1011.27 1011.41 1011.54 1011.64 1011.69 1011.68 1011.62 1011.51 1011.38 1011.26 1011.18 1011.15 1011.20 1011.34 1011.56 1011.87 1012.24
1013.76 1013.61 1013.44 1013.28 1013.13 1012.99 1012.84 1012.67 1012.48 1012.26 1012.01 1011.75 1011.48 1011.25 1011.05 1010.89 1010.79 1010.73 1010.71 1010.71 1010.73 1010.75 1010.77 1010.81 1010.86 1010.94 1011.04 1011.16 1011.28 1011.39 1011.47 1011.50 1011.47 1011.39 1011.27 1011.13 1011.01 1010.92 1010.91 1010.97 1011.13 1011.38 1011.70
1013.70 1013.54 1013.37 1013.21 1013.07 1012.94 1012.81 1012.65 1012.46 1012.23 1011.96 1011.67 1011.37 1011.10 1010.88 1010.72 1010.63 1010.59 1010.60 1010.64 1010.67 1010.70 1010.72 1010.73 1010.74 1010.77 1010.82 1010.89 1010.99 1011.10 1011.19 1011.26 1011.28 1011.24 1011.16 1011.04 1010.92 1010.81 1010.75 1010.76 1010.86 1011.06 1011.34
1013.48 1013.34 1013.19 1013.07 1012.96 1012.87 1012.76 1012.63 1012.46 1012.22 1011.94 1011.62 1011.30 1011.00 1010.76 1010.60 1010.51 1010.50 1010.54 1010.60 1010.66 1010.70 1010.71 1010.69 1010.65 1010.62 1010.60 1010.62 1010.68 1010.77 1010.86 1010.96 1011.02 1011.04 1011.01 1010.94 1010.84 1010.74 1010.67 1010.65 1010.71 1010.86 1011.10
1013.18 1013.07 1012.96 1012.88 1012.82 1012.77 1012.71 1012.61 1012.46 1012.23 1011.95 1011.61 1011.27 1010.96 1010.70 1010.53 1010.45 1010.46 1010.52 1010.61 1010.69 1010.74 1010.74 1010.69 1010.61 1010.51 1010.43 1010.38 1010.38 1010.43 1010.51 1010.61 1010.71 1010.77 1010.79 1010.77 1010.71 1010.64 1010.58 1010.56 1010.60 1010.72 1010.92
1012.87 1012.78 1012.72 1012.68 1012.67 1012.66 1012.64 1012.58 1012.45 1012.25 1011.96 1011.63 1011.27 1010.95 1010.68 1010.51 1010.43 1010.45 1010.53 1010.64 1010.74 1010.80 1010.80 1010.73 1010.61 1010.46 1010.32 1010.20 1010.14 1010.13 1010.18 1010.27 1010.37 1010.46 1010.51 1010.53 1010.51 1010.47 1010.43 1010.42 1010.45 1010.56 1010.74
1012.59 1012.52 1012.48 1012.47 1012.49 1012.52 1012.53 1012.50 1012.40 1012.21 1011.94 1011.61 1011.26 1010.93 1010.66 1010.48 1010.40 1010.42 1010.52 1010.64 1010.76 1010.83 1010.84 1010.77 1010.64 1010.46 1010.27 1010.11 1009.99 1009.93 1009.93 1009.98 1010.06 1010.14 1010.21 1010.24 1010.24 1010.22 1010.20 1010.20 1010.24 1010.34 1010.52
Thickness
5854 5849 5832 5827 5823 5820 5817 5816 5814 5811 5808 5804 5801 5798 5795 5792 5789 5785 5782 5779 5777 5774 5772 5770 5768 5766 5765 5763 5762 5760 5759 5757 5756 5755 5754 5752 5751 5750 5749 5749 5750 5749 5745
5856 5847 5831 5826 5822 5818 5816 5814 5812 5809 5807 5803 5800 5797 5794 5791 5788 5785 5782 5779 5776 5774 5772 5770 5768 5766 5764 5762 5761 5759 5758 5756 5755 5754 5753 5752 5750 5749 5748 5748 5749 5748 5745
5854 5844 5830 5825 5820 5817 5814 5812 5809 5807 5804 5802 5799 5795 5792 5789 5786 5783 5780 5778 5775 5773 5771 5769 5767 5765 5763 5761 5759 5758 5756 5755 5754 5753 5753 5756 5751 5748 5747 5746 5746 5744 5743
5851 5841 5832 5823 5819 5815 5812 5810 5807 5804 5802 5799 5797 5794 5791 5788 5785 5782 5779 5777 5775 5773 5770 5768 5766 5765 5763 5760 5758 5757 5755 5754 5754 5753 5757 5757 5754 5747 5745 5744 5743 5743 5742
5847 5839 5829 5820 5816 5813 5810 5807 5804 5802 5799 5796 5794 5791 5789 5786 5783 5781 5778 5776 5773 5772 5769 5767 5765 5763 5761 5759 5758 5756 5754 5753 5752 5753 5757 5756 5753 5746 5744 5743 5742 5741 5740
5841 5836 5826 5818 5813 5810 5806 5803 5801 5798 5796 5793 5791 5788 5786 5783 5781 5779 5776 5774 5771 5770 5768 5765 5763 5761 5759 5758 5756 5755 5753 5752 5752 5758 5756 5755 5753 5746 5744 5742 5741 5740 5739
5839 5834 5823 5815 5810 5806 5803 5800 5798 5795 5792 5790 5787 5785 5782 5780 5778 5776 5774 5771 5769 5767 5765 5763 5761 5759 5758 5756 5754 5753 5752 5751 5754 5759 5756 5755 5752 5746 5743 5741 5740 5739 5738
5838 5832 5821 5811 5807 5803 5800 5797 5794 5792 5789 5786 5784 5782 5779 5777 5775 5773 5771 5769 5767 5765 5763 5761 5759 5757 5756 5754 5753 5751 5751 5750 5753 5758 5756 5755 5750 5745 5742 5741 5740 5738 5737
5837 5830 5820 5812 5805 5800 5796 5793 5790 5787 5785 5782 5780 5777 5775 5773 5771 5769 5767 5765 5764 5762 5760 5758 5757 5755 5754 5752 5751 5750 5749 5748 5752 5758 5757 5754 5750 5745 5743 5741 5740 5738 5736
5832 5827 5819 5813 5806 5800 5796 5790 5787 5784 5781 5778 5775 5773 5770 5768 5766 5765 5763 5762 5760 5759 5757 5756 5754 5753 5751 5750 5749 5748 5747 5746 5750 5758 5757 5754 5749 5745 5743 5741 5740 5738 5737
5824 5822 5817 5812 5805 5801 5798 5792 5785 5781 5778 5775 5772 5769 5767 5767 5768 5765 5762 5760 5757 5755 5754 5752 5751 5751 5749 5749 5748 5746 5746 5749 5754 5757 5757 5754 5749 5745 5742 5741 5740 5739 5737
5815 5815 5813 5809 5804 5800 5796 5790 5786 5782 5779 5774 5773 5770 5766 5766 5765 5764 5761 5756 5753 5751 5750 5749 5749 5748 5747 5750 5750 5746 5748 5750 5754 5756 5755 5751 5747 5744 5742 5740 5740 5738 5737
5812 5810 5810 5805 5799 5795 5791 5788 5784 5780 5776 5772 5769 5765 5762 5761 5760 5758 5757 5754 5750 5748 5749 5750 5748 5748 5750 5750 5750 5749 5750 5753 5755 5756 5757 5752 5747 5744 5742 5741 5739 5738 5736
5809 5806 5805 5800 5794 5788 5785 5783 5778 5775 5772 5769 5765 5760 5759 5756 5755 5754 5752 5752 5749 5748 5747 5748 5748 5748 5747 5748 5748 5748 5749 5750 5753 5754 5753 5750 5747 5744 5742 5741 5739 5737 5736
5802 5800 5797 5792 5787 5781 5776 5774 5772 5769 5765 5762 5758 5756 5753 5751 5750 5749 5746 5744 5744 5744 5744 5743 5744 5745 5745 5746 5747 5747 5748 5749 5749 5750 5750 5748 5746 5744 5742 5741 5740 5738 5737
5795 5792 5789 5784 5779 5774 5769 5766 5764 5762 5758 5756 5753 5751 5747 5745 5744 5742 5739 5738 5738 5738 5739 5739 5740 5740 5742 5744 5745 5746 5747 5746 5746 5746 5748 5748 5745 5744 5743 5742 5741 5739 5738
5787 5784 5779 5775 5772 5767 5763 5760 5759 5756 5753 5751 5748 5744 5740 5738 5737 5735 5733 5732 5732 5731 5731 5732 5734 5736 5738 5741 5742 5743 5744 5745 5745 5746 5746 5746 5746 5745 5744 5742 5741 5740 5739
5777 5773 5769 5767 5762 5758 5755 5752 5751 5749 5747 5745 5742 5739 5735 5732 5730 5729 5728 5726 5724 5724 5726 5728 5729 5732 5734 5736 5738 5740 5742 5742 5743 5744 5745 5745 5745 5747 5745 5743 5741 5740 5739
5765 5762 5758 5756 5752 5748 5746 5744 5742 5740 5737 5737 5735 5733 5730 5727 5724 5723 5722 5720 5719 5719 5720 5723 5727 5727 5728 5730 5733 5735 5737 5739 5740 5743 5744 5745 5746 5745 5745 5744 5741 5740 5740
5755 5752 5748 5745 5741 5738 5736 5734 5732 5731 5730 5730 5728 5725 5723 5720 5718 5717 5717 5715 5713 5712 5713 5716 5718 5720 5722 5724 5727 5731 5733 5735 5738 5741 5742 5744 5745 5745 5746 5746 5743 5742 5740
5744 5741 5737 5734 5731 5727 5725 5723 5722 5721 5721 5721 5720 5718 5716 5714 5713 5710 5711 5709 5707 5705 5707 5712 5714 5715 5716 5720 5719 5721 5728 5733 5736 5737 5739 5742 5744 5744 5744 5743 5743 5744 5743
5734 5731 5727 5723 5720 5717 5715 5712 5711 5711 5711 5711 5710 5709 5708 5706 5706 5706 5703 5702 5701 5701 5703 5705 5706 5709 5712 5715 5713 5714 5718 5725 5727 5735 5735 5736 5739 5741 5741 5741 5741 5740 5741
5724 5721 5719 5713 5710 5707 5704 5705 5703 5702 5701 5701 5700 5700 5699 5698 5698 5696 5696 5696 5696 5697 5698 5699 5700 5700 5703 5709 5711 5710 5711 5716 5724 5728 5729 5731 5732 5734 5737 5740 5738 5738 5738
5716 5714 5709 5704 5701 5697 5695 5694 5692 5690 5690 5689 5689 5689 5689 5689 5689 5689 5689 5689 5690 5691 5692 5693 5696 5697 5697 5700 5704 5706 5710 5714 5712 5717 5721 5726 5726 5727 5731 5734 5737 5737 5736
5710 5706 5702 5697 5692 5688 5686 5683 5681 5681 5681 5681 5680 5678 5677 5679 5679 5679 5679 5680 5681 5683 5685 5686 5688 5689 5693 5694 5699 5702 5703 5703 5706 5709 5713 5717 5721 5726 5728 5729 5733 5734 5734
5704 5700 5696 5690 5684 5680 5677 5674 5670 5668 5667 5666 5665 5666 5667 5668 5668 5669 5669 5669 5670 5672 5675 5677 5679 5681 5684 5688 5692 5697 5698 5700 5702 5705 5706 5709 5714 5721 5723 5726 5728 5730 5730